Flag for United Kingdom Weather past 2 weeks in Nottingham, England, United Kingdom

Now
63 °F

Scattered clouds.


Feels Like: 63 °F
Forecast: 49 / 64 °F
Wind: 14 mph from Northwest

Location: East Midlands

Current Time: Jul 29, 2015 at 6:03:00 PM

Latest Report: Jul 29, 2015 at 5:20 PM


Visibility: N/A

Pressure: 29.89 "Hg

Humidity: 56%

Dew point: 46 °F

Location of NottinghamLocation

Historic Weather in Nottingham — Graph

°F

Nottingham temperature yesterday

Maximum temperature yesterday: 63 °F (at 1:20 PM)
Minimum temperature yesterday: 50 °F (at 11:50 PM)
Average temperature yesterday: 57 °F

Past Weeks' High & Low Weather Summary

 TemperatureHumidityPressure
High73 °F (Jul 16, 4:50 PM)100% (Jul 15, 12:50 AM)30.12 "Hg (Jul 15, 12:50 AM)
Low48 °F (Jul 16, 2:50 AM)40% (Jul 18, 2:20 PM)29.33 "Hg (Jul 27, 1:50 AM)
Average59 °F74%29.84 "Hg
* Reported Jul 14 4:20 PM — Jul 29 4:50 PM, Nottingham, Weather by CustomWeather, © 2015

Note: Actual official high and low records may vary slightly from our data, if they occured in-between our weather recording intervals... More about our weather records

Advertising

Nottingham weather history for previous 24 hours

 ConditionsComfort  
Time TempWeatherWind HumidityBarometerVisibility
4:50 PM
Wed, Jul 29
63 °FScattered clouds.15 mph59%29.89 "HgN/A
4:20 PM61 °FScattered clouds.14 mph63%29.89 "HgN/A
3:20 PM63 °FScattered clouds.10 mph59%29.86 "HgN/A
2:50 PM61 °FPassing clouds.10 mph55%29.86 "HgN/A
2:20 PM61 °FBroken clouds.9 mph59%29.86 "HgN/A
1:50 PM61 °FBroken clouds.10 mph59%29.86 "HgN/A
1:20 PM59 °FBroken clouds.8 mph63%29.83 "HgN/A
12:50 PM64 °FScattered clouds.6 mph52%29.83 "HgN/A
12:20 PM59 °FPassing clouds.7 mph63%29.83 "HgN/A
11:50 AM59 °FPartly sunny.9 mph63%29.83 "HgN/A
11:20 AM61 °FBroken clouds.9 mph63%29.83 "HgN/A
10:50 AM57 °FBroken clouds.9 mph72%29.80 "HgN/A
10:20 AM59 °FPartly sunny.10 mph68%29.80 "HgN/A
9:50 AM55 °FScattered clouds.14 mph82%29.80 "HgN/A
9:20 AM55 °FPassing clouds.12 mph82%29.80 "HgN/A
8:20 AM52 °FDrizzle. Partly sunny.13 mph88%29.77 "HgN/A
7:50 AM50 °FScattered showers. Scattered clouds.14 mph94%29.77 "HgN/A
7:20 AM50 °FScattered showers. Scattered clouds.10 mph94%29.77 "HgN/A
6:50 AM50 °FPassing clouds.14 mph88%29.77 "HgN/A
6:20 AM50 °FScattered clouds.13 mph88%29.77 "HgN/A
5:50 AM48 °FPassing clouds.13 mph94%29.74 "HgN/A
5:20 AM48 °FClear.14 mph94%29.74 "Hg10 mi
4:50 AM48 °FClear.13 mph94%29.74 "Hg10 mi
4:20 AM48 °FClear.12 mph94%29.74 "Hg10 mi
3:50 AM48 °FClear.10 mph94%29.74 "Hg10 mi
3:20 AM48 °FClear.12 mph94%29.74 "Hg10 mi
2:50 AM48 °FClear.9 mph94%29.74 "Hg10 mi
2:20 AM48 °FClear.10 mph94%29.74 "Hg10 mi
1:50 AM48 °FClear.9 mph94%29.74 "Hg10 mi
1:20 AM50 °FClear.9 mph88%29.74 "Hg10 mi
12:50 AM50 °FClear.12 mph88%29.74 "Hg10 mi
12:20 AM50 °FClear.10 mph88%29.74 "Hg10 mi
11:50 PM
Tue, Jul 28
50 °FClear.8 mph94%29.74 "Hg10 mi
10:20 PM52 °FPassing clouds.8 mph88%29.74 "HgN/A
9:50 PM52 °FPartly sunny.8 mph88%29.74 "HgN/A
9:20 PM52 °FPartly sunny.8 mph88%29.71 "HgN/A
8:50 PM52 °FScattered clouds.9 mph88%29.71 "HgN/A
8:20 PM54 °FRain showers. Broken clouds.16 mph82%29.71 "HgN/A
7:50 PM57 °FPassing clouds.12 mph67%29.71 "HgN/A
7:20 PM57 °FPassing clouds.15 mph67%29.71 "HgN/A
6:50 PM57 °FScattered clouds.15 mph67%29.71 "HgN/A
6:20 PM59 °FScattered clouds.14 mph63%29.71 "HgN/A
Weather by CustomWeather, © 2015

See weather overviewHow to use our weather pages